Location: Arbon
(43.0005°N, 0.7472°E)
Time: 11:12:00
(UTC+00:00)

Cosmos 1697 Rocket - Pass Details

Date: 22 April 2026
Orbit: 832 x 842 km, 71.0° (Epoch: 15 May)

Event Time Altitude Azimuth Distance (km) Brightness Sun altitude
Rises 23:41:13 0° 334° (NNW) 3,398 6.7 -34.4°
Reaches altitude 10° 23:43:40 10° 335° (NNW) 2,458 5.8 -34.5°
Enters shadow 23:47:10 40° 334° (NNW) 1,221 3.8 -34.5°
